Powrót do katalogu

METEOR 2-8 DEB

AktywnyPO
NORAD 36863·DEBRIS·🇷🇺 Russia

Wystrzelony Mar 25, 1982 z Plesetsk Cosmodrome

Loading…

Następne Przeloty (najbliższe 24 godziny)

TLE

ŚwieżeSource: Space-Track

Epoka: Sep 13, 2026, 10:56 UTC

1 36863U 82025BA  26256.45613440  .00001474  00000-0  62808-3 0  9994
2 36863  82.5287 153.3911 0006056 209.8085 150.2754 14.24592366133881

Śledź METEOR 2-8 DEB w czasie rzeczywistym z AllMySat

Download on the App Store